{"data":{"norad_id":62573,"epoch":"2026-09-21T07:30:57.944160Z","epoch_age_seconds":101000,"freshness":"FRESH","line1":"1 62573U 25006V   26264.31317065  .00009862  00000+0  36734-3 0  9992","line2":"2 62573  42.9992 267.5412 0001178 275.4095  84.6622 15.27587002 94789","mean_motion":15.27587002,"eccentricity":0.0001178,"inclination_deg":42.9992,"raan_deg":267.5412,"arg_perigee_deg":275.4095,"mean_anomaly_deg":84.6622,"bstar":0.00036734,"rev_number":9478,"period_min":94.266316623189,"perigee_km":482.21988436052,"apogee_km":483.83637486505,"semimajor_km":6861.1651296128,"source":"CELESTRAK","updated_at":"2026-09-22T09:00:49.630026Z"}}